This is the latest recevied weather packets stored in our database for station/object LY3FF-10. If no packets are shown the sender has not sent any weather packets the latest 10 day(s).
| Time | Temp. | Humidity | Pressure | Rain* | Wind** | Luminosity | Snow |
|---|---|---|---|---|---|---|---|
| 1787761275 | 18.33° C | 60% | 1003.4 hPa | - | - | - | - |
| 1787760470 | 18.89° C | 59% | 1003.3 hPa | - | - | - | - |
| 1787759694 | 19.44° C | 58% | 1003.3 hPa | - | - | - | - |
| 1787758818 | 19.44° C | 57% | 1003.3 hPa | - | - | - | - |
| 1787757980 | 19.44° C | 57% | 1003.3 hPa | - | - | - | - |
| 1787757120 | 20° C | 56% | 1003.3 hPa | - | - | - | - |
| 1787756315 | 22.78° C | 55% | 1003.3 hPa | - | - | - | - |
| 1787755450 | 24.44° C | 52% | 1003.3 hPa | - | - | - | - |
| 1787754695 | 27.78° C | 50% | 1003.3 hPa | - | - | - | - |
| 1787753964 | 21.67° C | 51% | 1003.1 hPa | - | - | - | - |
| 1787753240 | 25° C | 51% | 1003.2 hPa | - | - | - | - |
| 1787752435 | 25° C | 51% | 1003.3 hPa | - | - | - | - |
| 1787751644 | 20.56° C | 51% | 1003.1 hPa | - | - | - | - |
| 1787750784 | 21.11° C | 51% | 1003 hPa | - | - | - | - |
| 1787750020 | 27.78° C | 51% | 1003.1 hPa | - | - | - | - |
| 1787749200 | 31.67° C | 51% | 1003.1 hPa | - | - | - | - |
| 1787748335 | 22.22° C | 51% | 1003.1 hPa | - | - | - | - |
| 1787747491 | 21.67° C | 52% | 1003.2 hPa | - | - | - | - |
| 1787746775 | 38.33° C | 53% | 1003.1 hPa | - | - | - | - |
| 1787746035 | 21.67° C | 55% | 1003.2 hPa | - | - | - | - |
| 1787745184 | 21.67° C | 55% | 1003.3 hPa | - | - | - | - |
| 1787744310 | 22.22° C | 52% | 1003.3 hPa | - | - | - | - |
| 1787743490 | 21.67° C | 54% | 1003.3 hPa | - | - | - | - |
| 1787742650 | 20.56° C | 58% | 1003.3 hPa | - | - | - | - |
| 1787741800 | 30° C | 59% | 1003.3 hPa | - | - | - | - |
* Rain since midnight (hover to see other rain measurements)
** Current wind speed in m/s (hover to see current wind gust speed)